Home > Weather > Mattersburg > Past weeks

Flag for Austria Past Weather in Mattersburg, Burgenland, Austria — Yesterday and Last 2 Weeks

Now
78 °F

Scattered clouds.


Feels Like: 80 °F
Forecast: 61 / 71 °F
Wind: 3 mph from East

Location: Eisenstadt

Current Time: Jul 31, 2016 at 11:42:13 AM

Latest Report: Jul 31, 2016 at 11:00 AM


Visibility: 16 mi

Pressure: 29.87 "Hg

Humidity: 65%

Dew Point: 66 °F

Location of MattersburgLocation

Past Weather in Mattersburg — Graph

°F

Mattersburg Temperature Yesterday

Maximum temperature yesterday: 88 °F (at 3:00 PM)
Minimum temperature yesterday: 63 °F (at 5:00 AM)
Average temperature yesterday: 76 °F

High & Low Weather Summary for the Past Weeks

 TemperatureHumidityPressure
High88 °F (Jul 30, 3:00 PM)95% (Jul 23, 2:00 AM)30.16 "Hg (Jul 23, 2:00 AM)
Low57 °F (Jul 17, 5:00 AM)37% (Jul 30, 3:00 PM)29.87 "Hg (Jul 31, 5:00 AM)
Average73 °F68%30.00 "Hg
* Reported Jul 16 10:00 AM — Jul 31 10:00 AM, Mattersburg, Weather by CustomWeather, © 2016

Note: Actual official high and low records may vary slightly from our data, if they occured in-between our weather recording intervals... More about our weather records

Advertising

Mattersburg Weather History for the Previous 24 Hours

Scroll right to see more
 ConditionsComfort  
Time TempWeatherWind HumidityBarometerVisibility
10:00 AM
Sun, Jul 31
75 °FMild.2 mph76%29.88 "HgN/A
9:00 AM73 °FMild.3 mph82%29.87 "HgN/A
8:00 AM72 °FMild.1 mph84%29.89 "HgN/A
7:00 AM69 °FScattered clouds.6 mph84%29.87 "Hg12 mi
6:00 AM67 °FPartly sunny.1 mph86%29.87 "Hg12 mi
5:00 AM67 °FMild.3 mph85%29.87 "HgN/A
4:00 AM68 °FMild.1 mph84%29.89 "HgN/A
3:00 AM69 °FMild.2 mph81%29.89 "HgN/A
1:00 AM70 °FMild.2 mph79%29.91 "HgN/A
12:00 AM69 °FMild.2 mph77%29.92 "HgN/A
11:00 PM
Sat, Jul 30
70 °FClear.1 mph76%29.92 "Hg12 mi
10:00 PM72 °FMild.2 mph78%29.91 "HgN/A
9:00 PM75 °FMild.3 mph72%29.90 "HgN/A
8:00 PM82 °FScattered clouds.2 mph53%29.90 "Hg12 mi
7:00 PM84 °FScattered clouds.2 mph50%29.89 "Hg16 mi
6:00 PM83 °FWarm.3 mph57%29.90 "HgN/A
5:00 PM87 °FWarm.3 mph45%29.90 "HgN/A
4:00 PM86 °FWarm.6 mph44%29.89 "HgN/A
3:00 PM88 °FPleasantly warm.2 mph37%29.89 "HgN/A
2:00 PM87 °FPleasantly warm.2 mph38%29.91 "HgN/A
1:00 PM86 °FPleasantly warm.2 mph40%29.92 "HgN/A
12:00 PM84 °FWarm.2 mph46%29.93 "HgN/A
11:00 AM83 °FSunny.1 mph49%29.94 "Hg16 mi
Weather by CustomWeather, © 2016

See weather overviewHow to use our weather pages